| time (UTC) | temp F | wind direction | speed knots | gust knots | rain 1hr in | rain 24hr in | rain mn in | humidity % | barometer mb |
| 20260509013055 | 54 | 360 | 2.6 | 5.2 | 0.00 | 0.00 | 0.00 | 42 | 1005.5 |
| 20260509011604 | 55 | 360 | 0.0 | 2.6 | 0.00 | 0.00 | 0.00 | 44 | 1005.4 |
| 20260509010053 | 55 | 360 | 0.9 | 1.7 | 0.00 | 0.00 | 0.00 | 43 | 1005.0 |
| 20260509004607 | 57 | 360 | 0.0 | 1.7 | 0.00 | 0.00 | 0.00 | 41 | 1004.9 |
| 20260509003052 | 59 | 266 | 0.0 | 0.9 | 0.00 | 0.00 | 0.00 | 38 | 1004.8 |
| 20260509001553 | 60 | 360 | 0.9 | 7.0 | 0.00 | 0.00 | 0.00 | 34 | 1004.7 |
| 20260509000052 | 61 | 360 | 3.5 | 7.8 | 0.00 | 0.00 | 0.00 | 33 | 1004.7 |
| 20260508234550 | 61 | 360 | 1.7 | 8.7 | 0.00 | 0.00 | 0.00 | 33 | 1004.7 |
| 20260508233049 | 62 | 284 | 3.5 | 8.7 | 0.00 | 0.00 | 0.00 | 32 | 1004.7 |
| 20260508231550 | 62 | 254 | 2.6 | 11.3 | 0.00 | 0.00 | 0.00 | 33 | 1004.7 |
| 20260508230047 | 63 | 172 | 1.7 | 9.6 | 0.00 | 0.00 | 0.00 | 35 | 1004.8 |
| 20260508224545 | 62 | 360 | 5.2 | 11.3 | 0.00 | 0.00 | 0.00 | 34 | 1005.0 |
| 20260508223049 | 62 | 197 | 2.6 | 10.4 | 0.00 | 0.00 | 0.00 | 33 | 1005.0 |
| 20260508221542 | 62 | 226 | 3.5 | 10.4 | 0.00 | 0.00 | 0.00 | 34 | 1005.1 |
| 20260508220042 | 63 | 261 | 1.7 | 10.4 | 0.00 | 0.00 | 0.00 | 33 | 1005.1 |
| 20260508214548 | 64 | 167 | 5.2 | 12.2 | 0.00 | 0.00 | 0.00 | 32 | 1005.3 |
| 20260508213039 | 63 | 257 | 5.2 | 14.8 | 0.00 | 0.00 | 0.00 | 32 | 1005.4 |
| 20260508211537 | 63 | 269 | 7.8 | 13.9 | 0.00 | 0.00 | 0.00 | 32 | 1005.5 |
| 20260508210034 | 62 | 238 | 3.5 | 13.9 | 0.00 | 0.00 | 0.00 | 33 | 1005.7 |
| 20260508204538 | 63 | 269 | 6.1 | 9.6 | 0.00 | 0.00 | 0.00 | 32 | 1005.7 |
| 20260508203030 | 62 | 186 | 4.3 | 13.0 | 0.00 | 0.00 | 0.00 | 34 | 1006.0 |
| 20260508201529 | 61 | 333 | 4.3 | 10.4 | 0.00 | 0.00 | 0.00 | 33 | 1006.2 |
| 20260508200027 | 62 | 192 | 5.2 | 13.9 | 0.00 | 0.00 | 0.00 | 34 | 1006.6 |
| 20260508194523 | 61 | 258 | 3.5 | 14.8 | 0.00 | 0.00 | 0.00 | 33 | 1006.8 |
| 20260508193021 | 60 | 179 | 7.8 | 13.0 | 0.00 | 0.00 | 0.00 | 36 | 1007.1 |
| 20260508191520 | 60 | 219 | 5.2 | 9.6 | 0.00 | 0.00 | 0.00 | 34 | 1007.2 |
| 20260508190024 | 60 | 250 | 4.3 | 13.0 | 0.00 | 0.00 | 0.00 | 33 | 1007.3 |
| 20260508184517 | 60 | 284 | 6.1 | 14.8 | 0.00 | 0.00 | 0.00 | 36 | 1007.7 |
| 20260508183016 | 60 | 205 | 2.6 | 11.3 | 0.00 | 0.00 | 0.00 | 35 | 1007.7 |
| 20260508181514 | 58 | 225 | 0.9 | 7.8 | 0.00 | 0.00 | 0.00 | 39 | 1007.8 |
| 20260508180017 | 60 | 190 | 4.3 | 13.9 | 0.00 | 0.00 | 0.00 | 37 | 1008.0 |
| 20260508174511 | 60 | 248 | 6.1 | 12.2 | 0.00 | 0.00 | 0.00 | 34 | 1008.5 |
| 20260508173009 | 58 | 269 | 2.6 | 9.6 | 0.00 | 0.00 | 0.00 | 34 | 1008.5 |
| 20260508171504 | 58 | 248 | 2.6 | 10.4 | 0.00 | 0.00 | 0.00 | 37 | 1008.8 |
| 20260508170003 | 59 | 225 | 7.8 | 13.0 | 0.00 | 0.00 | 0.00 | 35 | 1008.8 |
| 20260508164559 | 58 | 197 | 4.3 | 10.4 | 0.00 | 0.00 | 0.00 | 31 | 1009.2 |
| 20260508163057 | 57 | 316 | 2.6 | 14.8 | 0.00 | 0.00 | 0.00 | 33 | 1009.5 |
| 20260508161552 | 57 | 279 | 5.2 | 10.4 | 0.00 | 0.00 | 0.00 | 31 | 1009.5 |
| 20260508160112 | 57 | 263 | 3.5 | 12.2 | 0.00 | 0.00 | 0.00 | 37 | 1009.6 |
| 20260508154544 | 56 | 264 | 3.5 | 7.0 | 0.00 | 0.00 | 0.00 | 38 | 1009.6 |
| 20260508153047 | 55 | 360 | 0.0 | 8.7 | 0.00 | 0.00 | 0.00 | 41 | 1009.6 |
| 20260508151546 | 55 | 360 | 0.9 | 7.8 | 0.00 | 0.00 | 0.00 | 37 | 1009.9 |
| 20260508150038 | 55 | 269 | 7.0 | 11.3 | 0.00 | 0.00 | 0.00 | 38 | 1010.0 |
| 20260508144534 | 54 | 360 | 3.5 | 7.8 | 0.00 | 0.00 | 0.00 | 42 | 1009.9 |
| 20260508143036 | 53 | 198 | 2.6 | 6.1 | 0.00 | 0.00 | 0.00 | 47 | 1010.1 |
| 20260508141536 | 52 | 169 | 1.7 | 6.1 | 0.00 | 0.00 | 0.00 | 45 | 1010.2 |
| 20260508140021 | 52 | 277 | 0.0 | 5.2 | 0.00 | 0.00 | 0.00 | 53 | 1010.3 |
| 20260508134528 | 52 | 184 | 1.7 | 4.3 | 0.00 | 0.00 | 0.00 | 52 | 1010.5 |
| 20260508133017 | 51 | 155 | 0.9 | 5.2 | 0.00 | 0.00 | 0.00 | 58 | 1010.5 |
| 20260508131508 | 49 | 154 | 0.0 | 4.3 | 0.00 | 0.00 | 0.00 | 58 | 1010.6 |
| 20260508130003 | 48 | 180 | 0.9 | 4.3 | 0.00 | 0.00 | 0.00 | 62 | 1010.5 |
| 20260508124559 | 47 | 147 | 2.6 | 5.2 | 0.00 | 0.00 | 0.00 | 66 | 1010.5 |
| 20260508123054 | 46 | 184 | 3.5 | 5.2 | 0.00 | 0.00 | 0.00 | 72 | 1010.5 |
| 20260508121603 | 44 | 229 | 0.9 | 2.6 | 0.00 | 0.00 | 0.00 | 78 | 1010.2 |
| 20260508120047 | 41 | 229 | 1.7 | 2.6 | 0.00 | 0.00 | 0.00 | 84 | 1010.1 |
| 20260508114643 | 39 | 233 | 0.0 | 0.0 | 0.00 | 0.00 | 0.00 | 90 | 1010.0 |
| 20260508113042 | 36 | 233 | 0.0 | 0.0 | 0.00 | 0.00 | 0.00 | 91 | 1009.8 |
| 20260508111540 | 35 | 360 | 0.0 | 0.9 | 0.00 | 0.00 | 0.00 | 92 | 1009.8 |
| 20260508110048 | 34 | 236 | 0.0 | 0.0 | 0.00 | 0.00 | 0.00 | 91 | 1009.7 |
| 20260508104536 | 34 | 236 | 0.0 | 0.0 | 0.00 | 0.00 | 0.00 | 91 | 1009.7 |
| 20260508103037 | 34 | 236 | 0.0 | 0.9 | 0.00 | 0.00 | 0.00 | 90 | 1009.6 |
| 20260508101535 | 34 | 75 | 0.0 | 0.9 | 0.00 | 0.00 | 0.00 | 90 | 1009.7 |
| 20260508100033 | 34 | 75 | 0.0 | 0.0 | 0.00 | 0.00 | 0.00 | 89 | 1009.8 |
| 20260508094529 | 35 | 69 | 0.0 | 1.7 | 0.00 | 0.00 | 0.00 | 89 | 1009.8 |
| 20260508093026 | 35 | 69 | 0.0 | 0.9 | 0.00 | 0.00 | 0.00 | 89 | 1010.0 |
| 20260508091525 | 35 | 69 | 1.7 | 3.5 | 0.00 | 0.00 | 0.00 | 87 | 1010.0 |
| 20260508090021 | 37 | 142 | 0.0 | 0.0 | 0.00 | 0.00 | 0.00 | 86 | 1010.0 |
| 20260508084522 | 37 | 147 | 0.0 | 0.0 | 0.00 | 0.00 | 0.00 | 86 | 1010.0 |
| 20260508083048 | 37 | 146 | 0.0 | 0.0 | 0.00 | 0.00 | 0.00 | 84 | 1010.0 |
| 20260508081514 | 38 | 142 | 0.0 | 0.0 | 0.00 | 0.00 | 0.00 | 84 | 1010.0 |
| 20260508080012 | 39 | 140 | 0.0 | 0.0 | 0.00 | 0.00 | 0.00 | 82 | 1009.9 |
| 20260508074508 | 39 | 360 | 0.0 | 1.7 | 0.00 | 0.00 | 0.00 | 80 | 1009.9 |
| 20260508073006 | 41 | 360 | 0.0 | 1.7 | 0.00 | 0.00 | 0.00 | 79 | 1009.9 |
| 20260508071506 | 42 | 360 | 0.9 | 2.6 | 0.00 | 0.00 | 0.00 | 78 | 1009.7 |
| 20260508070004 | 42 | 360 | 0.9 | 2.6 | 0.00 | 0.00 | 0.00 | 77 | 1009.8 |
| 20260508064504 | 42 | 360 | 0.0 | 2.6 | 0.00 | 0.00 | 0.00 | 76 | 1010.1 |
| 20260508063000 | 43 | 360 | 0.9 | 2.6 | 0.00 | 0.00 | 0.00 | 78 | 1010.2 |
| 20260508061603 | 42 | 360 | 0.0 | 0.9 | 0.00 | 0.00 | 0.00 | 78 | 1010.3 |
| 20260508061503 | 42 | 360 | 0.0 | 0.9 | 0.00 | 0.00 | 0.00 | 78 | 1010.4 |
| 20260508060110 | 42 | 360 | 0.0 | 1.7 | 0.00 | 0.00 | 0.00 | 76 | 1010.3 |
| 20260508054604 | 42 | 360 | 0.9 | 2.6 | 0.00 | 0.00 | 0.00 | 75 | 1010.5 |
| 20260508053102 | 43 | 360 | 3.5 | 7.0 | 0.00 | 0.00 | 0.00 | 73 | 1010.0 |
| 20260508051553 | 43 | 360 | 0.9 | 2.6 | 0.00 | 0.00 | 0.00 | 73 | 1010.3 |
| 20260508050056 | 43 | 360 | 0.9 | 1.7 | 0.00 | 0.00 | 0.00 | 73 | 1010.4 |
| 20260508044551 | 43 | 360 | 0.0 | 1.7 | 0.00 | 0.00 | 0.00 | 71 | 1010.5 |
| 20260508043050 | 43 | 360 | 1.7 | 2.6 | 0.00 | 0.00 | 0.00 | 72 | 1010.3 |
| 20260508041546 | 41 | 360 | 3.5 | 5.2 | 0.00 | 0.00 | 0.00 | 76 | 1010.7 |
| 20260508040042 | 41 | 360 | 0.9 | 1.7 | 0.00 | 0.00 | 0.00 | 74 | 1010.3 |
| 20260508034541 | 41 | 360 | 0.0 | 1.7 | 0.00 | 0.00 | 0.00 | 73 | 1010.1 |
| 20260508033042 | 42 | 360 | 0.0 | 1.7 | 0.00 | 0.00 | 0.00 | 71 | 1010.1 |
| 20260508031541 | 42 | 360 | 0.0 | 0.0 | 0.00 | 0.00 | 0.00 | 72 | 1010.0 |
| 20260508030046 | 43 | 360 | 0.9 | 1.7 | 0.00 | 0.00 | 0.00 | 67 | 1010.2 |
| 20260508024552 | 43 | 360 | 0.0 | 0.9 | 0.00 | 0.00 | 0.00 | 64 | 1010.5 |
| 20260508023040 | 43 | 360 | 0.0 | 1.7 | 0.00 | 0.00 | 0.00 | 64 | 1010.4 |
| 20260508021539 | 43 | 360 | 0.9 | 1.7 | 0.00 | 0.00 | 0.00 | 66 | 1010.3 |
| 20260508020045 | 44 | 360 | 0.0 | 0.9 | 0.00 | 0.00 | 0.00 | 61 | 1010.1 |
| 20260508014538 | 46 | 360 | 0.9 | 4.3 | 0.00 | 0.00 | 0.00 | 58 | 1010.2 |